Weather History for KSFB - January, 2013

Change the Weather History Date:

Wednesday, January 30, 2013

  Actual Average Record
Temperature  
Mean Temperature 72 °F -  
Max Temperature 82 °F 70 °F 84 °F (1975)
Min Temperature 62 °F 45 °F 27 °F (1966)
Cooling Degree Days 7    
Growing Degree Days 22 (Base 50)    
Moisture  
Dew Point 61 °F    
Average Humidity 72    
Maximum Humidity 94    
Minimum Humidity 44    
Precipitation  
Precipitation 0.00 in - - ()
Sea Level Pressure  
Sea Level Pressure 30.00 in    
Wind  
Wind Speed 8 mph (South)    
Max Wind Speed 21 mph    
Max Gust Speed 29 mph    
Visibility 10 miles    
Events      
Averages and records for this station are not official NWS values.
T = Trace of Precipitation, MM = Missing Value Source: NWS Daily Summary

Daily Weather History Graph

Daily Weather History Graph

Search for Another Location

Airport or City:

Trip Planner

Search our weather history database for the weather conditions in past years. The results will help you decide how hot, cold, wet, or windy it might be!

Date:

Astronomy

Jan. 30, 2013 Rise Set
Actual Time 7:14 AM EST 6:02 PM EST
Civil Twilight 6:49 AM EST 6:27 PM EST
Nautical Twilight 6:21 AM EST 6:55 PM EST
Astronomical Twilight 5:53 AM EST 7:23 PM EST
Moon 9:35 PM EST (1/30) 9:02 AM EST (1/30)
Length of Visible Light 11h 38m
Length of Day
10h 48m
Waning Gibbous, 88% of the Moon is Illuminated
Jan 30
Waning Gibbous
Feb 3
Last Quarter
Feb 10
New
Feb 17
First Quarter
Feb 25
Full

Hourly Weather History & Observations

Time (EST) Temp. Heat Index Dew Point Humidity Pressure Visibility Wind Dir Wind Speed Gust Speed Precip Events Conditions
12:53 AM 66.9 °F - 64.0 °F 90% 30.13 in 10.0 mi SE 3.5 mph - N/A   Overcast
1:53 AM 66.9 °F - 64.0 °F 90% 30.12 in 10.0 mi SSE 5.8 mph - N/A   Partly Cloudy
2:53 AM 66.9 °F - 64.0 °F 90% 30.11 in 10.0 mi South 4.6 mph - N/A   Clear
3:53 AM 63.0 °F - 61.0 °F 93% 30.09 in 7.0 mi SE 5.8 mph - N/A   Clear
4:16 AM 64.4 °F - 62.6 °F 94% 30.08 in 9.0 mi SSE 5.8 mph - N/A   Mostly Cloudy
4:24 AM 64.4 °F - 62.6 °F 94% 30.08 in 10.0 mi SSE 4.6 mph - N/A   Scattered Clouds
4:53 AM 64.9 °F - 63.0 °F 93% 30.08 in 10.0 mi South 3.5 mph - N/A   Clear
5:53 AM 63.0 °F - 61.0 °F 93% 30.08 in 8.0 mi SSE 4.6 mph - N/A   Scattered Clouds
6:16 AM 62.6 °F - 60.8 °F 94% 30.08 in 9.0 mi SSE 5.8 mph - N/A   Mostly Cloudy
6:25 AM 64.4 °F - 62.6 °F 94% 30.08 in 9.0 mi SSE 5.8 mph - N/A   Scattered Clouds
7:53 AM 64.9 °F - 63.0 °F 93% 30.07 in 10.0 mi South 6.9 mph - N/A   Clear
8:53 AM 69.1 °F - 62.1 °F 78% 30.05 in 10.0 mi South 13.8 mph - N/A   Clear
9:53 AM 73.9 °F - 61.0 °F 64% 30.04 in 10.0 mi SSE 19.6 mph 28.8 mph N/A   Clear
10:53 AM 75.9 °F - 61.0 °F 60% 30.01 in 10.0 mi SSE 20.7 mph 27.6 mph N/A   Partly Cloudy
11:53 AM 79.0 °F - 60.1 °F 52% 29.99 in 10.0 mi South 13.8 mph 23.0 mph N/A   Partly Cloudy
12:53 PM 81.0 °F 81.6 °F 60.1 °F 49% 29.98 in 10.0 mi South 13.8 mph 21.9 mph N/A   Partly Cloudy
1:53 PM 82.9 °F 82.8 °F 59.0 °F 44% 29.95 in 10.0 mi South 15.0 mph 24.2 mph N/A   Clear
2:53 PM 82.0 °F 82.4 °F 60.1 °F 47% 29.93 in 10.0 mi South 16.1 mph 23.0 mph N/A   Clear
3:53 PM 82.0 °F 82.1 °F 59.0 °F 45% 29.92 in 10.0 mi South 16.1 mph 23.0 mph N/A   Clear
4:53 PM 82.0 °F 82.4 °F 60.1 °F 47% 29.90 in 10.0 mi South 15.0 mph - N/A   Partly Cloudy
5:53 PM 79.0 °F - 60.1 °F 52% 29.90 in 10.0 mi South 10.4 mph - N/A   Clear
6:53 PM 77.0 °F - 61.0 °F 58% 29.89 in 10.0 mi South 6.9 mph - N/A   Clear
7:53 PM 75.9 °F - 61.0 °F 60% 29.89 in 10.0 mi SSW 15.0 mph 18.4 mph N/A   Clear
8:53 PM 73.9 °F - 57.9 °F 57% 29.91 in 10.0 mi SSW 10.4 mph - N/A   Clear
9:53 PM 75.0 °F - 59.0 °F 57% 29.91 in 10.0 mi SSW 9.2 mph 19.6 mph N/A   Clear
10:53 PM 72.0 °F - 62.1 °F 71% 29.90 in 10.0 mi South 11.5 mph 24.2 mph N/A   Clear
11:53 PM 71.1 °F - 62.1 °F 73% 29.91 in 10.0 mi SSW 13.8 mph 20.7 mph N/A   Clear